Aérodrome :
LOGIN :

S'inscrire | Disclaimer

   EN    FR    IT 

 










Légende :    VFR   VFR Marginal   IFR   IFR Intensif   IFR Très Intensif
Visi : 
Plafond : 
>= 8 km
>= 3000ft
5 à 8 km
1000 à 3000 ft
1500m à 5 km
500 à 1000 ft
800 à 1500m
200 à 500 ft
< 800m
< 200 ft
Symboles :   Orages  Brouillard  Fortes neiges  Fortes précipitations  Vent > 20 kt
SIGMETs :   Divers  Orages  Givrage  Turbulence  Onde Orograph.  Cendres Volcan.







- Altitude de l'aérodrome : 44 ft
- Code IATA : SOU
- Voir les cartes d'approche


EGHI - Southampton

DERNIER METAR :
  • 141850Z 28006KT 240V320 9999 FEW030 21/14 Q1017

METARs EXPIRÉS :
  • 141820Z 26006KT 230V300 9999 SCT030 21/15 Q1017
  • 141750Z 25008KT 210V270 9999 SCT030 21/15 Q1017
  • 141720Z 24008KT 210V300 9999 SCT028 22/15 Q1017
  • 141650Z 27008KT 230V300 9999 SCT035 22/14 Q1017
  • 141620Z 25007KT 210V280 9999 FEW035 SCT044 22/14 Q1017

TAF TAF EGHI
Valide du 14 à 18h jusqu'au 14 à 22h UTC


141658Z 1418/1422 25007KT 9999 SCT035
ATIS : +44 23 8062 7103
Pas de NOTAMs connus pour ce terrain.



MET'MAP, la Météo Aéronautique d'un coup d'oeil ! - Copyright ORBIFLY Décembre 2007 - Disclaimer

ORBIFLY MET'MAP TEAM :

Programmation & Développement : Alexandra Zaïnal
Conception & Développement : Baudouin d'Aumeries
Co-Programmation & Développement : Marc-Olivier Méhu
Soutien technique & logistique : Manuel Goepfert

Contact : metmap@orbifly.com




SOURCES & CREDITS :

   NOAA